Harrisburg, IL

7:31 PM CST on December 05, 2019 (GMT -0600)
Harrisburg-Raleigh

Weather History for KHSB - October, 2019

Change the Weather History Date:

Monday, October 14, 2019

  Actual Average (WUND) Record (WUND)
Temperature  
Mean Temperature 54 °F -  
Max Temperature 73 °F - - (-1)
Min Temperature 37 °F - - (-1)
Degree Days  
Heating Degree Days 10    
Growing Degree Days 4 (Base 50)    
Moisture  
Dew Point 37 °F    
Average Humidity 60    
Maximum Humidity 89    
Minimum Humidity 20    
Precipitation  
Precipitation 0.00 in - - ()
Sea Level Pressure  
Sea Level Pressure 30.08 in    
Wind  
Wind Speed 1 mph ()    
Max Wind Speed 5 mph    
Max Gust Speed -    
Visibility 10.0 miles    
Events      
Averages and records for this station are not official NWS values.
T = Trace of Precipitation, MM = Missing Value Source: Averaged Metar Reports

Daily Weather History Graph

Daily Weather History Graph

Search for Another Location

Airport or City:

Astronomy

Oct. 14, 2019 Rise Set
Actual Time 7:01 AM CDT 6:18 PM CDT
Civil Twilight 6:35 AM CDT 6:44 PM CDT
Nautical Twilight 6:04 AM CDT 7:15 PM CDT
Astronomical Twilight 5:34 AM CDT 7:45 PM CDT
Moon 7:08 PM CDT (10/14) 7:33 AM CDT (10/14)
Length of Visible Light 12h 09m
Length of Day
11h 16m
Full, 99% of the Moon is Illuminated
Oct 14
Full
Oct 21
Last Quarter
Oct 27
New
Nov 4
First Quarter
Nov 12
Full

Hourly Weather History & Observations

Time (CDT) Temp. Windchill Dew Point Humidity Pressure Visibility Wind Dir Wind Speed Gust Speed Precip Events Conditions
12:15 AM 50.0 °F - 38.3 °F 64% 30.02 in 10.0 mi SW 3.5 mph - N/A   Clear
12:35 AM 49.3 °F - 38.7 °F 67% 30.02 in 10.0 mi SW 3.5 mph - N/A   Clear
12:55 AM 46.8 °F - 38.8 °F 74% 30.02 in 10.0 mi Calm Calm - N/A   Clear
1:15 AM 44.6 °F 43.1 °F 38.5 °F 79% 30.04 in 10.0 mi WNW 3.5 mph - N/A   Clear
1:35 AM 43.5 °F 40.9 °F 38.1 °F 81% 30.04 in 10.0 mi WNW 4.6 mph - N/A   Clear
1:55 AM 46.9 °F - 38.1 °F 71% 30.04 in 10.0 mi West 4.6 mph - N/A   Clear
2:15 AM 45.5 °F 44.2 °F 37.9 °F 75% 30.05 in 10.0 mi West 3.5 mph - N/A   Clear
2:35 AM 43.3 °F - 37.8 °F 81% 30.05 in 10.0 mi Calm Calm - N/A   Clear
2:55 AM 44.6 °F - 38.7 °F 80% 30.04 in 10.0 mi Calm Calm - N/A   Clear
3:15 AM 43.9 °F - 39.2 °F 84% 30.05 in 10.0 mi Calm Calm - N/A   Clear
3:35 AM 41.7 °F - 38.3 °F 88% 30.05 in 10.0 mi Calm Calm - N/A   Clear
3:55 AM 43.2 °F - 40.1 °F 89% 30.05 in 10.0 mi Calm Calm - N/A   Clear
4:15 AM 40.1 °F - 37.2 °F 89% 30.05 in 10.0 mi Calm Calm - N/A   Clear
4:35 AM 39.9 °F - 36.9 °F 89% 30.06 in 10.0 mi Calm Calm - N/A   Clear
4:55 AM 41.0 °F - 37.8 °F 88% 30.07 in 10.0 mi Calm Calm - N/A   Clear
5:15 AM 40.1 °F - 37.0 °F 89% 30.08 in 10.0 mi Calm Calm - N/A   Clear
5:35 AM 39.2 °F - 36.3 °F 89% 30.08 in 10.0 mi Calm Calm - N/A   Clear
5:55 AM 38.7 °F - 35.8 °F 89% 30.08 in 10.0 mi Calm Calm - N/A   Clear
6:15 AM 38.7 °F - 35.8 °F 89% 30.09 in 10.0 mi Calm Calm - N/A   Clear
6:35 AM 38.5 °F - 35.6 °F 89% 30.10 in 10.0 mi Calm Calm - N/A   Clear
6:55 AM 37.4 °F - 34.5 °F 89% 30.10 in 7.0 mi Calm Calm - N/A   Clear
7:15 AM 37.2 °F - 34.2 °F 89% 30.10 in 10.0 mi Calm Calm - N/A   Clear
7:35 AM 38.3 °F - 35.4 °F 89% 30.11 in 10.0 mi Calm Calm - N/A   Clear
7:55 AM 39.9 °F - 36.9 °F 89% 30.11 in 10.0 mi Calm Calm - N/A   Clear
8:15 AM 42.8 °F - 39.7 °F 89% 30.12 in 10.0 mi Calm Calm - N/A   Clear
8:35 AM 45.7 °F - 42.4 °F 88% 30.13 in 10.0 mi Calm Calm - N/A   Clear
8:55 AM 48.2 °F - 42.8 °F 82% 30.14 in 10.0 mi Calm Calm - N/A   Clear
9:15 AM 50.4 °F - 43.7 °F 78% 30.15 in 10.0 mi SW 3.5 mph - N/A   Clear
9:35 AM 53.1 °F - 43.0 °F 69% 30.15 in 10.0 mi Calm Calm - N/A   Clear
9:55 AM 55.8 °F - 41.2 °F 58% 30.15 in 10.0 mi Calm Calm - N/A   Clear
10:15 AM 58.5 °F - 39.0 °F 48% 30.15 in 10.0 mi Calm Calm - N/A   Clear
10:35 AM 60.6 °F - 38.1 °F 43% 30.15 in 10.0 mi Calm Calm - N/A   Clear
10:55 AM 62.6 °F - 35.2 °F 36% 30.15 in 10.0 mi Calm Calm - N/A   Clear
11:15 AM 65.1 °F - 28.0 °F 25% 30.15 in 10.0 mi Calm Calm - N/A   Clear
11:35 AM 66.6 °F - 24.1 °F 20% 30.14 in 10.0 mi Calm Calm - N/A   Clear
11:55 AM 67.3 °F - 26.8 °F 22% 30.13 in 10.0 mi SW 3.5 mph - N/A   Clear
12:15 PM 67.5 °F - 25.2 °F 20% 30.13 in 10.0 mi Calm Calm - N/A   Clear
12:35 PM 68.4 °F - 25.0 °F 20% 30.12 in 10.0 mi Calm Calm - N/A   Clear
12:55 PM 69.1 °F - 26.4 °F 20% 30.12 in 10.0 mi Calm Calm - N/A   Clear
1:15 PM 69.6 °F - 29.1 °F 22% 30.11 in 10.0 mi Calm Calm - N/A   Clear
1:35 PM 70.3 °F - 29.8 °F 22% 30.10 in 10.0 mi NW 3.5 mph - N/A   Clear
1:55 PM 71.1 °F - 31.3 °F 23% 30.09 in 10.0 mi Calm Calm - N/A   Clear
2:35 PM 71.6 °F - 30.0 °F 21% 30.08 in 10.0 mi Calm Calm - N/A   Clear
2:55 PM 72.7 °F - 30.6 °F 21% 30.07 in 10.0 mi Calm Calm - N/A   Clear
3:15 PM 72.0 °F - 29.3 °F 21% 30.07 in 10.0 mi Calm Calm - N/A   Clear
3:35 PM 72.5 °F - 29.3 °F 20% 30.07 in 10.0 mi Calm Calm - N/A   Clear
3:55 PM 71.6 °F - 28.4 °F 20% 30.07 in 10.0 mi Calm Calm - N/A   Clear
4:15 PM 72.7 °F - 29.8 °F 21% 30.07 in 10.0 mi Calm Calm - N/A   Clear
4:35 PM 72.3 °F - 29.1 °F 20% 30.07 in 10.0 mi Calm Calm - N/A   Clear
4:55 PM 72.3 °F - 29.5 °F 20% 30.06 in 10.0 mi Calm Calm - N/A   Clear
5:15 PM 71.8 °F - 30.0 °F 21% 30.06 in 10.0 mi Calm Calm - N/A   Clear
5:35 PM 71.6 °F - 31.6 °F 23% 30.06 in 10.0 mi Calm Calm - N/A   Clear
5:55 PM 68.4 °F - 33.8 °F 28% 30.05 in 10.0 mi ENE 3.5 mph - N/A   Clear
6:15 PM 64.9 °F - 36.0 °F 34% 30.05 in 10.0 mi Calm Calm - N/A   Clear
6:35 PM 61.5 °F - 39.2 °F 44% 30.06 in 10.0 mi Calm Calm - N/A   Clear
6:55 PM 57.9 °F - 43.7 °F 59% 30.05 in 10.0 mi Calm Calm - N/A   Clear
7:15 PM 56.3 °F - 43.5 °F 62% 30.05 in 10.0 mi Calm Calm - N/A   Clear
7:35 PM 54.3 °F - 41.9 °F 63% 30.07 in 10.0 mi Calm Calm - N/A   Clear
7:55 PM 52.3 °F - 42.8 °F 70% 30.06 in 10.0 mi Calm Calm - N/A   Clear
8:15 PM 51.4 °F - 44.2 °F 76% 30.06 in 10.0 mi Calm Calm - N/A   Clear
8:35 PM 50.5 °F - 43.9 °F 78% 30.07 in 10.0 mi Calm Calm - N/A   Clear
8:55 PM 51.4 °F - 44.4 °F 77% 30.07 in 10.0 mi Calm Calm - N/A   Clear
9:15 PM 51.6 °F - 43.0 °F 72% 30.06 in 10.0 mi ENE 3.5 mph - N/A   Clear
9:35 PM 52.9 °F - 41.4 °F 65% 30.06 in 10.0 mi Calm Calm - N/A   Clear
9:55 PM 50.0 °F - 42.1 °F 74% 30.06 in 10.0 mi Calm Calm - N/A   Clear
10:15 PM 51.1 °F - 41.9 °F 71% 30.06 in 10.0 mi Calm Calm - N/A   Clear
10:35 PM 49.8 °F - 41.9 °F 74% 30.06 in 10.0 mi Calm Calm - N/A   Clear
10:55 PM 47.1 °F - 42.3 °F 83% 30.07 in 10.0 mi Calm Calm - N/A   Clear
11:15 PM 47.8 °F - 42.3 °F 81% 30.07 in 10.0 mi Calm Calm - N/A   Clear
11:35 PM 46.8 °F - 42.1 °F 84% 30.07 in 10.0 mi Calm Calm - N/A   Clear
11:55 PM 46.0 °F - 41.7 °F 85% 30.06 in 10.0 mi Calm Calm - N/A   Clear